Terug naar catalogus

METEOR 1-18

ActiefWeerPO
NORAD 7363·PAYLOAD·🇷🇺 Russia

Gelanceerd Jul 9, 1974 vanaf Plesetsk Cosmodrome

Loading…

Volgende Passages (komende 24 uur)

TLE

VersSource: Space-Track

Epoch: Sep 14, 2026, 11:44 UTC

1 07363U 74052A   26257.48895145  .00000049  00000-0  24696-4 0  9997
2 07363  81.2245 283.9923 0016333 248.5748 111.3675 14.00281660664595

Volg METEOR 1-18 in realtime met AllMySat

Download on the App Store